FENGYUN 1C DEB, 35203

Orbit data source: Space-Track

FENGYUN 1C DEB, 35203 is space debris in SSO originally from a launch on Mon, 10 May 1999 UTC launched from the Taiyaun Space Center, China (TSC). Fengyun 1C debris stems from the Chinese weather satellite Fengyun-1C, which was intentionally destroyed by a Chinese anti-satellite missile in 2007. This event dramatically increased the amount of space debris, with thousands of trackable fragments posing hazards to satellites and human spaceflight. The Fengyun 1C debris cloud has become a focal point in discussions about space sustainability and the need for international regulations to prevent the creation of new debris.

Loading next visibility...
Identifier
35203, 1999-025DPK
Orbit
SSO
Country
Flag of CNCN / PRC
Related business
Manufacturer
Unknown
Mission
Spacecraft
Bus & Motor
Unknown
Mass
Unknown
Launch date (UTC)
1999-05-10 (27 years ago)
Launch vehicle
Unknown
Launch site
Taiyaun Space Center, China (TSC)
Object type
Payload
Rocket body
Debris
Shape & HBR
Unknown shape, 0.1 m
Radar Cross Section
Small (<0.1 m²)

Expand to show TLE details & history
Last TLE update: 1 week ago

TLE from 1 week ago
0 FENGYUN 1C DEB
1 35203U 99025DPK 26117.73330365  .00001069  00000-0  12349-2 0  9992
2 35203 102.0846 112.4449 0513241 222.1920 133.8605 13.26925490614542
Epoch: 2026-04-27T17:35Z
TLE epoch observation values (Epoch: 2026-04-27T17:35:57.435Z)
Latitude
-0.00008°
Longitude
-7.26313°
Altitude
1,438.9 km
Speed
7.009 km/s
True Right ascension
07h 29m 46s
True Declination
0° 00' 00"
Sunlit
Object was in daylight at epoch
Visualization orbit readout
Latitude
Unknown
Longitude
Unknown
Altitude
Unknown
Speed
Unknown
Apparent Right ascension
Unknown
Apparent Declination
Unknown
Sunlit
N/A
Visualization observer readout
Local Sidereal Time
19:52:28
Azimuth
Unknown
Elevation
Unknown
Doppler factor
Unknown
Orbital elements
Apogee altitude
1,542.514 km
Perigee altitude
769.165 km
Semi-major axis
7,533.977 km
Eccentricity
0.05132
Inclination
102.0846°
RAAN
112.4449°
Arg. of periapsis
222.192°
True anomaly
137.91695°
Mean anomaly
133.8605°
Eccentric anomaly
135.90669°
Mean motion
3.319 °/min
Orbital period
108.47 mins
BSTAR
0.0012349
Loading maneuver chart data...
Computing Atmospheric mass density...

Documentation

Showing up to 5 results
|